Theta_e
338 339 340 340 339 340 340 339 338 337 337 336 337 335 333 333 333 333 332 331 330 329 328 326 326 326 326
338 332 334 335 336 337 334 333 332 332 333 333 332 334 332 332 331 331 331 330 329 328 326 324 324 327 326
335 333 330 330 331 330 329 327 328 332 332 332 329 332 332 332 331 329 328 326 326 326 325 325 326 327 327
332 334 334 333 335 335 334 334 332 332 331 330 325 325 327 330 329 327 325 325 324 327 327 326 327 328 327
331 333 332 331 332 334 335 334 333 330 329 329 328 326 326 323 327 327 327 327 327 327 327 327 327 327 327
332 332 331 329 330 331 333 334 332 330 330 328 327 328 328 327 327 328 327 327 327 327 327 327 327 327 327
331 330 330 329 329 329 330 331 330 329 329 328 328 328 328 329 328 328 328 327 328 327 327 326 326 327 327
333 332 329 329 329 329 330 331 331 331 330 329 329 330 329 330 329 329 328 328 328 327 326 326 328 328 327
331 333 331 329 328 330 331 333 331 331 330 330 330 330 330 330 329 328 328 328 327 326 326 327 328 328 326
329 330 331 330 328 330 332 333 331 331 330 329 330 329 330 330 329 329 327 326 326 326 326 327 328 327 324
332 331 332 331 330 330 330 332 333 331 331 330 330 330 330 329 328 327 326 326 325 327 325 325 327 324 322
330 330 331 331 331 331 331 333 333 333 331 330 330 331 331 329 326 326 325 326 326 324 323 323 324 322 322
328 328 328 327 330 330 331 333 335 334 331 328 329 330 330 327 327 328 326 324 323 325 324 323 320 321 319
328 328 328 328 330 330 332 333 334 333 330 328 328 327 328 329 328 327 324 321 322 324 320 319 313 314 316
328 329 329 331 331 330 331 333 333 332 332 330 328 329 327 327 326 326 324 321 320 320 322 318 311 310 312
331 331 329 329 327 330 332 333 332 333 333 332 330 329 328 327 328 330 326 323 321 318 319 317 318 315 309
Wind_Speed
10 11 10 9 8 11 13 14 10 12 12 11 11 11 11 11 12 13 13 12 11 11 11 9 8 9 10
9 9 11 10 9 12 11 11 11 12 12 10 10 9 10 10 10 10 10 10 10 9 8 4 5 9 8
10 8 10 8 10 11 9 7 9 8 8 8 11 8 8 9 10 9 8 5 5 6 4 4 8 5 7
9 10 10 9 8 8 8 6 5 5 7 9 7 7 6 7 7 6 3 3 6 3 3 3 5 5 5
8 7 5 5 5 5 7 5 5 6 6 5 5 5 5 6 4 5 3 2 4 4 4 5 5 4 4
7 7 7 6 6 5 6 7 5 4 3 3 3 4 3 2 3 1 3 2 3 3 4 5 5 5 4
8 6 6 6 5 6 6 6 5 5 4 4 3 3 3 2 2 2 2 2 2 3 3 4 4 5 5
7 7 6 5 6 5 6 6 5 4 4 4 4 3 3 2 2 1 1 1 1 1 2 3 3 4 5
9 7 7 7 6 6 6 7 7 5 5 4 4 3 3 2 1 1 2 1 1 0 1 0 1 4 4
8 7 7 7 7 7 7 6 8 7 6 5 4 4 3 3 3 2 1 2 1 1 2 3 3 3 4
14 10 9 9 7 7 7 7 10 9 8 6 4 4 5 4 3 2 2 1 2 3 2 3 2 3 4
10 9 8 8 7 7 7 7 10 9 10 7 5 6 6 4 5 4 3 2 2 3 3 2 3 4 3
9 9 9 9 8 8 7 9 9 9 10 7 4 5 6 6 6 6 3 3 3 3 3 0 5 3 3
11 9 9 9 8 8 7 8 10 10 9 7 7 6 6 6 6 6 6 2 1 1 1 1 2 3 4
15 10 9 8 8 8 8 8 9 11 10 10 10 7 6 3 5 8 8 7 4 2 2 2 2 2 2
17 12 14 11 10 9 10 8 10 13 14 12 11 10 8 7 8 7 6 3 3 5 2 1 1 2 2
Wind_Direction
88 97 108 96 100 91 89 98 86 98 88 79 79 85 88 83 80 76 73 70 67 63 56 43 11 346 66
127 88 88 84 71 87 86 87 86 81 93 96 99 82 89 85 80 77 74 68 66 63 50 14 315 298 56
135 116 105 100 104 109 110 126 165 125 126 113 65 75 83 85 77 72 73 79 108 103 75 306 306 43 50
137 160 149 143 158 149 149 173 112 113 65 95 98 97 83 88 94 95 115 218 231 67 98 248 45 31 49
156 160 152 163 155 160 153 150 131 127 152 145 144 156 146 206 163 184 172 60 42 19 35 39 30 30 26
166 176 167 164 165 168 168 158 151 154 154 148 143 131 161 131 136 144 101 79 78 59 36 29 23 11 25
179 180 172 170 177 168 161 171 171 155 164 165 151 166 138 158 155 144 119 103 91 52 42 26 20 22 20
182 179 173 174 179 171 171 173 188 169 165 166 167 167 159 184 164 189 58 49 55 54 51 39 19 25 42
183 208 181 180 179 186 182 178 182 188 179 185 183 176 165 170 203 203 206 217 252 112 64 203 359 55 49
199 205 200 188 190 190 186 183 188 189 191 197 183 189 180 193 213 207 217 284 263 303 325 349 17 80 90
196 197 209 200 205 196 194 193 188 191 191 190 198 202 186 207 196 220 229 231 302 302 360 352 37 89 123
193 200 200 200 207 206 203 199 191 194 194 201 204 203 201 193 212 204 211 234 348 332 310 311 62 115 94
196 194 198 203 199 207 208 205 195 196 189 198 212 223 191 205 211 213 195 211 196 250 270 213 131 145 101
193 199 206 205 202 211 202 207 191 197 193 194 205 210 221 204 204 202 187 167 111 295 284 191 210 161 149
200 196 201 210 209 202 203 201 199 199 199 197 206 205 206 197 203 198 198 182 160 169 249 299 236 232 139
198 201 201 203 203 208 206 198 206 201 199 202 210 205 203 201 221 199 190 168 152 171 145 136 58 355 236